STARLINK-2470, 48334

Orbit data source: Space-Track

STARLINK-2470, 48334 is a payload satellite owned by SpaceX/Seattle (US) in LEO that was launched on Thu, 29 Apr 2021 UTC via an FALCON 9 launch vehicle from the Air Force Eastern Test Range (AFETR). Payload-class satellites include a variety of spacecraft equipped with specific instruments for various scientific and technological missions. These include communications satellites like Starlink; space stations such as the ISS; scientific satellites like the Hubble; Earth observation satellites from companies like Planet Labs, Umbra, and HawkEye 360; GPS; miniature CubeSats for education and research; and military/defense satellites.

Loading next visibility...
Identifier
48334, 2021-036BL
Orbit
LEO
Country
Flag of USUS
Related business
Manufacturer
SpaceX/Seattle
Mission
Operational Commercial Communications
Bus & Motor
STARLINK, Unknown motor
Mass
260 kg wet, ~248 kg dry
Launch date (UTC)
2021-04-29 (4 years ago)
Launch vehicle
FALCON 9
Launch site
Air Force Eastern Test Range (AFETR)
Object type
Payload
Rocket body
Debris
Shape & HBR
Box + 1 Pan, 10.1 m
Radar Cross Section
13.562 m², Large (>1 m²)

Expand to show TLE details & history
Last TLE update: 22 hours ago

TLE from 22 hours ago
0 STARLINK-2470
1 48334U 21036BL  25290.95452483  .00006936  00000-0  48412-3 0  9998
2 48334  53.0535  22.3764 0000329 359.0827   1.0161 15.06393683246529
Epoch: 2025-10-17T22:54Z
TLE epoch observation values (Epoch: 2025-10-17T22:54:30.945Z)
Latitude
-0.00004°
Longitude
12.05495°
Altitude
547.882 km
Speed
7.589 km/s
True Right ascension
01h 29m 30s
True Declination
0° 00' 00"
Sunlit
Object was in full shadow at epoch
Visualization orbit readout
Latitude
Unknown
Longitude
Unknown
Altitude
Unknown
Speed
Unknown
Apparent Right ascension
Unknown
Apparent Declination
Unknown
Sunlit
N/A
Visualization observer readout
Local Sidereal Time
15:37:32
Azimuth
Unknown
Elevation
Unknown
Doppler factor
Unknown
Orbital elements
Apogee altitude
547.73 km
Perigee altitude
547.274 km
Semi-major axis
6,925.639 km
Eccentricity
0.00003
Inclination
53.0535°
RAAN
22.3764°
Arg. of periapsis
359.0827°
True anomaly
1.01617°
Mean anomaly
1.0161°
Eccentric anomaly
1.01613°
Mean motion
3.76577 °/min
Orbital period
95.6 mins
BSTAR
0.00048412
Loading maneuver chart data...
Computing Atmospheric mass density...
Loading historical data...
Loading historical data...
Loading historical data...
Loading historical data...
Loading historical data...
Loading historical data...
Loading historical data...

Documentation

Showing up to 5 results
|